Change the Weather History Date:

Thursday, June 13, 2013

  Actual Average Record
Temperature  
Mean Temperature 81 °F 76 °F  
Max Temperature 91 °F 87 °F 93 °F (2000)
Min Temperature 70 °F 64 °F 55 °F (2007)
Cooling Degree Days 16 11  
Month to date cooling degree days 159 121  
Year to date cooling degree days 302 289  
Since 1 June cooling degree days 159 121  
Growing Degree Days 30 (Base 50)    
Moisture  
Dew Point 73 °F    
Average Humidity 78    
Maximum Humidity 100    
Minimum Humidity 56    
Precipitation  
Precipitation 0.26 in 0.13 in 0.33 in (2014)
Month to date precipitation 2.92 1.72  
Year to date precipitation 17.72 24.59  
Sea Level Pressure  
Sea Level Pressure 29.86 in    
Wind  
Wind Speed 6 mph (West)    
Max Wind Speed 20 mph    
Max Gust Speed 30 mph    
Visibility 8 miles    
Events Rain , Thunderstorm    
T = Trace of Precipitation, MM = Missing Value Source: NWS Daily Summary

Daily Weather History Graph

Daily Weather History Graph

Search for Another Location

Airport or City:

Trip Planner

Search our weather history database for the weather conditions in past years. The results will help you decide how hot, cold, wet, or windy it might be!

Date:

Astronomy

Jun. 13, 2013 Rise Set
Actual Time 6:27 AM EDT 8:53 PM EDT
Civil Twilight 5:58 AM EDT 9:23 PM EDT
Nautical Twilight 5:22 AM EDT 9:59 PM EDT
Astronomical Twilight 4:42 AM EDT 10:38 PM EDT
Moon 10:54 AM EDT (6/13) No Moon Set
Length of Visible Light 15h 24m
Length of Day
14h 25m
Waxing Crescent, 21% of the Moon is Illuminated
Jun 13
Waxing Crescent
Jun 16
First Quarter
Jun 23
Full
Jun 30
Last Quarter
Jul 8
New

Hourly Weather History & Observations

Time (EDT) Temp. Heat Index Dew Point Humidity Pressure Visibility Wind Dir Wind Speed Gust Speed Precip Events Conditions
12:53 AM 75.9 °F - 73.9 °F 94% 29.95 in 9.0 mi Calm Calm - N/A   Clear
1:53 AM 75.9 °F - 73.9 °F 94% 29.94 in 9.0 mi Calm Calm - N/A   Clear
2:53 AM 75.0 °F - 73.0 °F 94% 29.94 in 9.0 mi WSW 3.5 mph - N/A   Clear
3:53 AM 73.9 °F - 73.0 °F 97% 29.94 in 7.0 mi SSW 3.5 mph - N/A   Clear
4:53 AM 72.0 °F - 71.1 °F 97% 29.93 in 7.0 mi Calm Calm - N/A   Clear
5:53 AM 72.0 °F - 71.1 °F 97% 29.92 in 6.0 mi Calm Calm - N/A   Clear
6:39 AM 71.6 °F - 69.8 °F 94% 29.95 in 1.5 mi SSW 3.5 mph - N/A   Clear
6:49 AM 71.6 °F - 71.6 °F 100% 29.96 in 3.0 mi SW 3.5 mph - N/A   Clear
6:53 AM 71.1 °F - 71.1 °F 100% 29.92 in 5.0 mi Calm Calm - N/A   Clear
7:53 AM 75.0 °F - 73.0 °F 94% 29.93 in 8.0 mi Calm Calm - N/A   Clear
8:53 AM 80.1 °F 84.2 °F 73.0 °F 79% 29.92 in 10.0 mi Variable 3.5 mph 16.1 mph N/A   Clear
9:53 AM 84.0 °F 90.2 °F 73.0 °F 69% 29.91 in 10.0 mi West 15.0 mph 23.0 mph N/A   Clear
10:53 AM 86.0 °F 93.0 °F 73.0 °F 65% 29.90 in 10.0 mi WNW 11.5 mph 18.4 mph N/A   Partly Cloudy
11:53 AM 87.1 °F 93.6 °F 72.0 °F 61% 29.88 in 10.0 mi West 6.9 mph 19.6 mph N/A   Partly Cloudy
12:53 PM 89.1 °F 96.0 °F 72.0 °F 57% 29.85 in 10.0 mi West 11.5 mph 21.9 mph N/A   Scattered Clouds
1:53 PM 89.1 °F 97.0 °F 73.0 °F 59% 29.84 in 10.0 mi West 12.7 mph 20.7 mph N/A   Clear
2:53 PM 90.0 °F 97.9 °F 73.0 °F 57% 29.81 in 10.0 mi West 9.2 mph 20.7 mph N/A   Scattered Clouds
3:53 PM 90.0 °F 100.2 °F 75.0 °F 61% 29.79 in 10.0 mi WSW 8.1 mph - N/A   Scattered Clouds
4:53 PM 90.0 °F 100.2 °F 75.0 °F 61% 29.77 in 10.0 mi West 10.4 mph - N/A   Scattered Clouds
5:53 PM 90.0 °F 100.2 °F 75.0 °F 61% 29.73 in 10.0 mi WSW 11.5 mph 21.9 mph N/A   Partly Cloudy
6:53 PM 84.9 °F 93.3 °F 75.0 °F 72% 29.75 in 6.0 mi WNW 11.5 mph 20.7 mph N/A   Haze
6:56 PM 82.4 °F 89.5 °F 75.2 °F 79% 29.79 in 2.5 mi NW 17.3 mph 25.3 mph 0.01 in Thunderstorm Haze
7:04 PM 77.0 °F - 73.4 °F 89% 29.79 in 1.0 mi West 11.5 mph 29.9 mph 0.16 in Rain , Thunderstorm Heavy Thunderstorms and Rain
7:12 PM 77.0 °F - 73.4 °F 89% 29.79 in 3.0 mi NW 16.1 mph 25.3 mph 0.23 in Rain , Thunderstorm Light Thunderstorms and Rain
7:53 PM 77.0 °F - 75.0 °F 94% 29.76 in 10.0 mi NNE 3.5 mph - 0.26 in Thunderstorm Thunderstorm
8:34 PM 78.8 °F - 73.4 °F 83% 29.84 in 10.0 mi North 4.6 mph - N/A   Overcast
8:53 PM 79.0 °F - 73.0 °F 82% 29.82 in 10.0 mi North 9.2 mph - 0.00 in Rain Light Rain
9:53 PM 77.0 °F - 71.1 °F 82% 29.82 in 10.0 mi North 5.8 mph - 0.00 in   Clear
10:53 PM 72.0 °F - 71.1 °F 97% 29.85 in 10.0 mi Calm Calm - N/A   Clear
11:53 PM 70.0 °F - 70.0 °F 100% 29.86 in 8.0 mi Calm Calm - N/A   Clear